Time,TemperatureF,DewpointF,PressureIn,WindDirection,WindDirectionDegrees,WindSpeedMPH,WindSpeedGustMPH,Humidity,HourlyPrecipIn,Conditions,Clouds,dailyrainin,SolarRadiationWatts/m^2,SoftwareType,DateUTC
2013-12-20 00:01:00,15.9,14.0,29.99,NW,307,0.0,0.0,92,0.00,CLR,FEW,0.00,0.0,WeatherDisplay:10.37,2013-12-20 05:01:00,
2013-12-20 00:02:00,16.0,14.1,29.99,NW,307,0.8,1.2,92,0.00,CLR,FEW,0.00,0.0,WeatherDisplay:10.37,2013-12-20 05:02:00,
2013-12-20 00:07:00,16.1,14.2,29.99,NW,307,0.0,0.0,92,0.00,CLR,FEW,0.00,0.0,WeatherDisplay:10.37,2013-12-20 05:07:00,
2013-12-20 00:12:00,16.2,14.3,29.99,NW,307,0.0,0.0,92,0.00,CLR,FEW,0.00,0.0,WeatherDisplay:10.37,2013-12-20 05:12:00,
2013-12-20 00:17:00,16.3,14.4,29.99,NW,307,0.0,0.0,92,0.00,CLR,FEW,0.00,0.0,WeatherDisplay:10.37,2013-12-20 05:17:00,
2013-12-20 00:22:00,16.4,14.5,29.99,NW,307,0.0,0.0,92,0.00,CLR,FEW,0.00,0.0,WeatherDisplay:10.37,2013-12-20 05:22:00,
2013-12-20 00:27:00,16.6,14.7,30.00,NW,307,0.7,1.2,92,0.00,CLR,FEW,0.00,0.0,WeatherDisplay:10.37,2013-12-20 05:27:00,
2013-12-20 00:32:00,16.9,15.0,30.00,NW,307,0.4,1.2,92,0.00,CLR,FEW,0.00,0.0,WeatherDisplay:10.37,2013-12-20 05:32:00,
2013-12-20 00:37:00,17.0,15.1,30.00,NW,307,0.0,0.0,92,0.00,CLR,FEW,0.00,0.0,WeatherDisplay:10.37,2013-12-20 05:37:00,
2013-12-20 00:42:00,17.0,15.1,29.99,NW,307,0.0,0.0,92,0.00,CLR,FEW,0.00,0.0,WeatherDisplay:10.37,2013-12-20 05:42:00,
2013-12-20 00:47:00,17.1,15.2,29.99,NW,307,0.0,0.0,92,0.00,CLR,FEW,0.00,0.0,WeatherDisplay:10.37,2013-12-20 05:47:00,
2013-12-20 00:49:00,17.2,15.3,29.99,NW,307,0.0,0.0,92,0.00,CLR,FEW,0.00,0.0,WeatherDisplay:10.37,2013-12-20 05:49:00,
2013-12-20 00:54:00,17.3,15.4,29.99,NW,307,0.0,0.0,92,0.00,CLR,FEW,0.00,0.0,WeatherDisplay:10.37,2013-12-20 05:54:00,
2013-12-20 00:59:00,17.5,15.6,29.99,NW,307,0.0,0.0,92,0.00,CLR,FEW,0.00,0.0,WeatherDisplay:10.37,2013-12-20 05:59:00,
2013-12-20 01:04:00,17.7,16.0,29.99,NW,307,0.0,0.0,93,0.00,CLR,FEW,0.00,0.0,WeatherDisplay:10.37,2013-12-20 06:04:00,
2013-12-20 01:09:00,17.8,15.9,29.99,NW,307,0.0,0.0,92,0.00,CLR,FEW,0.00,0.0,WeatherDisplay:10.37,2013-12-20 06:09:00,
2013-12-20 01:14:00,17.9,16.0,30.00,NW,307,0.0,0.0,92,0.00,CLR,FEW,0.00,0.0,WeatherDisplay:10.37,2013-12-20 06:14:00,
2013-12-20 01:19:00,18.0,16.3,30.00,NW,307,0.0,0.0,93,0.00,CLR,FEW,0.00,0.0,WeatherDisplay:10.37,2013-12-20 06:19:00,
2013-12-20 01:24:00,18.2,16.5,30.00,NW,307,0.0,0.0,93,0.00,CLR,FEW,0.00,0.0,WeatherDisplay:10.37,2013-12-20 06:24:00,
2013-12-20 01:29:00,18.4,16.7,30.00,NW,307,0.0,0.0,93,0.00,CLR,FEW,0.00,0.0,WeatherDisplay:10.37,2013-12-20 06:29:00,
2013-12-20 01:34:00,18.5,16.8,30.00,NW,307,0.0,0.0,93,0.00,CLR,FEW,0.00,0.0,WeatherDisplay:10.37,2013-12-20 06:34:00,
2013-12-20 01:39:00,18.7,17.0,30.00,NW,307,0.0,0.0,93,0.00,CLR,FEW,0.00,0.0,WeatherDisplay:10.37,2013-12-20 06:39:00,
2013-12-20 01:44:00,18.9,17.2,30.02,NW,307,0.0,0.0,93,0.00,CLR,FEW,0.00,0.0,WeatherDisplay:10.37,2013-12-20 06:44:00,
2013-12-20 01:49:00,19.1,17.4,30.02,NW,307,0.0,0.0,93,0.00,CLR,FEW,0.00,0.0,WeatherDisplay:10.37,2013-12-20 06:49:00,
2013-12-20 01:54:00,19.2,17.5,30.02,NW,307,0.0,0.0,93,0.00,CLR,FEW,0.00,0.0,WeatherDisplay:10.37,2013-12-20 06:54:00,
2013-12-20 01:59:00,19.3,17.6,30.02,NW,307,0.0,0.0,93,0.00,CLR,FEW,0.00,0.0,WeatherDisplay:10.37,2013-12-20 06:59:00,
2013-12-20 02:04:00,19.3,17.6,30.02,NW,307,0.0,0.0,93,0.00,CLR,FEW,0.00,0.0,WeatherDisplay:10.37,2013-12-20 07:04:00,
2013-12-20 02:10:00,19.5,17.8,30.02,NW,307,0.0,0.0,93,0.00,CLR,FEW,0.00,0.0,WeatherDisplay:10.37,2013-12-20 07:10:00,
2013-12-20 02:15:00,19.6,17.9,30.03,NW,307,0.0,0.0,93,0.00,CLR,FEW,0.00,0.0,WeatherDisplay:10.37,2013-12-20 07:15:00,
2013-12-20 02:20:00,19.7,18.0,30.03,NW,307,0.0,0.0,93,0.00,CLR,FEW,0.00,0.0,WeatherDisplay:10.37,2013-12-20 07:20:00,
2013-12-20 02:25:00,19.7,18.0,30.03,NW,307,0.0,2.0,93,0.00,CLR,FEW,0.00,0.0,WeatherDisplay:10.37,2013-12-20 07:25:00,
2013-12-20 02:29:00,19.9,18.2,30.03,NW,307,0.0,0.0,93,0.00,CLR,FEW,0.00,0.0,WeatherDisplay:10.37,2013-12-20 07:29:00,
2013-12-20 02:34:00,20.0,18.3,30.03,NW,307,0.0,0.0,93,0.00,CLR,FEW,0.00,0.0,WeatherDisplay:10.37,2013-12-20 07:34:00,
2013-12-20 02:40:00,20.0,18.3,30.03,NW,307,0.0,0.0,93,0.00,CLR,FEW,0.00,0.0,WeatherDisplay:10.37,2013-12-20 07:40:00,
2013-12-20 02:45:00,20.1,18.4,30.03,NW,307,0.0,0.0,93,0.00,CLR,FEW,0.00,0.0,WeatherDisplay:10.37,2013-12-20 07:45:00,
2013-12-20 02:50:00,20.2,18.5,30.03,NW,307,0.0,1.0,93,0.00,CLR,FEW,0.00,0.0,WeatherDisplay:10.37,2013-12-20 07:50:00,
2013-12-20 02:54:00,20.3,18.6,30.03,NW,307,0.0,0.0,93,0.00,CLR,FEW,0.00,0.0,WeatherDisplay:10.37,2013-12-20 07:54:00,
2013-12-20 02:59:00,20.4,18.7,30.03,NW,307,0.0,0.0,93,0.00,CLR,FEW,0.00,0.0,WeatherDisplay:10.37,2013-12-20 07:59:00,
2013-12-20 03:04:00,20.4,18.7,30.03,NW,307,0.0,0.0,93,0.00,CLR,FEW,0.00,0.0,WeatherDisplay:10.37,2013-12-20 08:04:00,
2013-12-20 03:09:00,20.5,18.8,30.03,NW,307,0.0,0.0,93,0.00,CLR,FEW,0.00,0.0,WeatherDisplay:10.37,2013-12-20 08:09:00,
2013-12-20 03:15:00,20.5,18.8,30.02,NW,307,0.0,0.0,93,0.00,CLR,FEW,0.00,0.0,WeatherDisplay:10.37,2013-12-20 08:15:00,
2013-12-20 03:20:00,20.6,18.9,30.02,NW,307,0.0,0.0,93,0.00,CLR,FEW,0.00,0.0,WeatherDisplay:10.37,2013-12-20 08:20:00,
2013-12-20 03:24:00,20.7,19.0,30.02,NW,307,0.0,1.0,93,0.00,CLR,FEW,0.00,0.0,WeatherDisplay:10.37,2013-12-20 08:24:00,
2013-12-20 03:29:00,20.7,19.0,30.02,NW,307,0.0,0.0,93,0.00,CLR,FEW,0.00,0.0,WeatherDisplay:10.37,2013-12-20 08:29:00,
2013-12-20 03:34:00,20.8,19.1,30.02,NW,307,0.0,0.0,93,0.00,CLR,FEW,0.00,0.0,WeatherDisplay:10.37,2013-12-20 08:34:00,
2013-12-20 03:40:00,20.8,19.1,30.02,NW,307,0.0,0.0,93,0.00,CLR,FEW,0.00,0.0,WeatherDisplay:10.37,2013-12-20 08:40:00,
2013-12-20 03:45:00,20.8,19.1,30.02,NW,307,0.0,0.0,93,0.00,CLR,FEW,0.00,0.0,WeatherDisplay:10.37,2013-12-20 08:45:00,
2013-12-20 03:50:00,20.8,19.1,30.02,NW,307,0.0,0.0,93,0.00,CLR,FEW,0.00,0.0,WeatherDisplay:10.37,2013-12-20 08:50:00,
2013-12-20 03:55:00,20.9,19.2,30.02,NW,307,0.0,0.0,93,0.00,CLR,FEW,0.00,0.0,WeatherDisplay:10.37,2013-12-20 08:55:00,
2013-12-20 03:59:00,20.9,19.2,30.02,NW,307,0.0,0.0,93,0.00,CLR,FEW,0.00,0.0,WeatherDisplay:10.37,2013-12-20 08:59:00,
2013-12-20 04:05:00,20.9,19.2,30.02,NW,307,0.0,0.0,93,0.00,CLR,FEW,0.00,0.0,WeatherDisplay:10.37,2013-12-20 09:05:00,
2013-12-20 04:10:00,20.9,19.2,30.02,NW,307,0.0,0.0,93,0.00,CLR,FEW,0.00,0.0,WeatherDisplay:10.37,2013-12-20 09:10:00,
2013-12-20 04:14:00,21.0,19.3,30.02,NW,307,0.0,0.0,93,0.00,CLR,FEW,0.00,0.0,WeatherDisplay:10.37,2013-12-20 09:14:00,
2013-12-20 04:19:00,21.0,19.3,30.02,NW,307,0.6,1.2,93,0.00,CLR,FEW,0.00,0.0,WeatherDisplay:10.37,2013-12-20 09:19:00,
2013-12-20 04:24:00,21.1,19.4,30.01,NW,307,1.1,2.3,93,0.00,CLR,FEW,0.00,0.0,WeatherDisplay:10.37,2013-12-20 09:24:00,
2013-12-20 04:29:00,21.1,19.4,30.01,NW,307,0.0,0.0,93,0.00,CLR,FEW,0.00,0.0,WeatherDisplay:10.37,2013-12-20 09:29:00,
2013-12-20 04:34:00,21.1,19.4,30.01,NW,307,0.0,0.0,93,0.00,CLR,FEW,0.00,0.0,WeatherDisplay:10.37,2013-12-20 09:34:00,
2013-12-20 04:40:00,21.2,19.5,30.01,NW,307,0.0,0.0,93,0.00,CLR,FEW,0.00,0.0,WeatherDisplay:10.37,2013-12-20 09:40:00,
2013-12-20 04:45:00,21.2,19.5,30.00,NW,307,0.0,1.0,93,0.00,CLR,FEW,0.00,0.0,WeatherDisplay:10.37,2013-12-20 09:45:00,
2013-12-20 04:50:00,21.2,19.5,30.00,NW,307,0.0,0.0,93,0.00,CLR,FEW,0.00,0.0,WeatherDisplay:10.37,2013-12-20 09:50:00,
2013-12-20 04:54:00,21.2,19.5,30.02,NW,307,0.0,0.0,93,0.00,CLR,FEW,0.00,0.0,WeatherDisplay:10.37,2013-12-20 09:54:00,
2013-12-20 04:59:00,21.4,19.7,30.02,NW,307,0.1,1.2,93,0.00,CLR,FEW,0.00,0.0,WeatherDisplay:10.37,2013-12-20 09:59:00,
2013-12-20 05:04:00,21.6,19.9,30.02,NW,307,0.0,0.0,93,0.00,CLR,FEW,0.00,0.0,WeatherDisplay:10.37,2013-12-20 10:04:00,
2013-12-20 05:10:00,21.7,20.0,30.02,NW,307,0.0,0.0,93,0.00,CLR,FEW,0.00,0.0,WeatherDisplay:10.37,2013-12-20 10:10:00,
2013-12-20 05:15:00,21.7,20.0,30.02,NW,307,0.0,0.0,93,0.00,CLR,FEW,0.00,0.0,WeatherDisplay:10.37,2013-12-20 10:15:00,
2013-12-20 05:20:00,21.8,20.1,30.02,NW,307,1.0,2.0,93,0.00,CLR,FEW,0.00,0.0,WeatherDisplay:10.37,2013-12-20 10:20:00,
2013-12-20 05:24:00,22.0,20.3,30.02,NW,307,0.0,0.0,93,0.00,CLR,FEW,0.00,0.0,WeatherDisplay:10.37,2013-12-20 10:24:00,
2013-12-20 05:29:00,22.1,20.6,30.02,NW,307,0.0,0.0,94,0.00,CLR,FEW,0.00,0.0,WeatherDisplay:10.37,2013-12-20 10:29:00,
2013-12-20 05:35:00,22.1,20.7,30.02,NW,307,0.0,0.0,94,0.00,CLR,FEW,0.00,0.0,WeatherDisplay:10.37,2013-12-20 10:35:00,
2013-12-20 05:40:00,22.2,20.7,30.02,NW,307,0.0,0.0,94,0.00,CLR,FEW,0.00,0.0,WeatherDisplay:10.37,2013-12-20 10:40:00,
2013-12-20 05:45:00,22.3,20.8,30.02,NW,307,0.0,0.0,94,0.00,CLR,FEW,0.00,0.0,WeatherDisplay:10.37,2013-12-20 10:45:00,
2013-12-20 05:50:00,22.4,20.9,30.02,NW,307,0.0,0.0,94,0.00,CLR,FEW,0.00,0.0,WeatherDisplay:10.37,2013-12-20 10:50:00,
2013-12-20 05:54:00,22.5,21.0,30.02,NW,307,0.0,0.0,94,0.00,CLR,FEW,0.00,0.0,WeatherDisplay:10.37,2013-12-20 10:54:00,
2013-12-20 06:00:00,22.7,21.2,30.02,NW,307,0.0,0.0,94,0.00,CLR,FEW,0.00,0.0,WeatherDisplay:10.37,2013-12-20 11:00:00,
2013-12-20 06:04:00,22.7,21.2,30.02,NW,307,0.0,0.0,94,0.00,CLR,FEW,0.00,0.0,WeatherDisplay:10.37,2013-12-20 11:04:00,
2013-12-20 06:10:00,22.8,21.3,30.02,NW,307,0.0,0.0,94,0.00,CLR,FEW,0.00,0.0,WeatherDisplay:10.37,2013-12-20 11:10:00,
2013-12-20 06:14:00,22.9,21.4,30.01,NW,307,0.0,0.0,94,0.00,CLR,FEW,0.00,0.0,WeatherDisplay:10.37,2013-12-20 11:14:00,
2013-12-20 06:19:00,23.0,21.5,30.01,NW,307,0.0,0.0,94,0.00,CLR,FEW,0.00,0.0,WeatherDisplay:10.37,2013-12-20 11:19:00,
2013-12-20 06:24:00,23.1,21.6,30.01,NW,307,0.0,0.0,94,0.00,CLR,FEW,0.00,0.0,WeatherDisplay:10.37,2013-12-20 11:24:00,
2013-12-20 06:30:00,23.2,21.7,30.01,NW,307,0.0,0.0,94,0.00,CLR,FEW,0.00,0.0,WeatherDisplay:10.37,2013-12-20 11:30:00,
2013-12-20 06:34:00,23.2,21.8,30.01,NW,307,0.0,0.0,94,0.00,CLR,FEW,0.00,0.0,WeatherDisplay:10.37,2013-12-20 11:34:00,
2013-12-20 06:40:00,23.3,21.8,30.01,NW,307,0.0,0.0,94,0.00,CLR,FEW,0.00,0.0,WeatherDisplay:10.37,2013-12-20 11:40:00,
2013-12-20 06:45:00,23.4,21.9,30.01,NW,307,0.0,0.0,94,0.00,CLR,FEW,0.00,0.0,WeatherDisplay:10.37,2013-12-20 11:45:00,
2013-12-20 06:50:00,23.4,21.9,30.01,NW,307,0.0,0.0,94,0.00,CLR,FEW,0.00,0.0,WeatherDisplay:10.37,2013-12-20 11:50:00,
2013-12-20 06:55:00,23.5,22.0,30.01,NW,307,0.0,0.0,94,0.00,CLR,FEW,0.00,0.0,WeatherDisplay:10.37,2013-12-20 11:55:00,
2013-12-20 07:00:00,23.6,22.1,30.01,NW,307,0.0,1.0,94,0.00,CLR,FEW,0.00,0.0,WeatherDisplay:10.37,2013-12-20 12:00:00,
2013-12-20 07:05:00,23.8,22.3,30.01,NW,307,0.0,0.0,94,0.00,CLR,FEW,0.00,0.0,WeatherDisplay:10.37,2013-12-20 12:05:00,
2013-12-20 07:10:00,23.9,22.4,30.02,NW,307,0.0,0.0,94,0.00,CLR,FEW,0.00,0.0,WeatherDisplay:10.37,2013-12-20 12:10:00,
2013-12-20 07:15:00,23.9,22.4,30.02,NW,307,0.4,1.2,94,0.00,CLR,FEW,0.00,0.0,WeatherDisplay:10.37,2013-12-20 12:15:00,
2013-12-20 07:20:00,24.0,22.5,30.02,NW,307,0.0,0.0,94,0.00,CLR,FEW,0.00,0.0,WeatherDisplay:10.37,2013-12-20 12:20:00,
2013-12-20 07:25:00,24.1,22.6,30.03,NW,307,0.0,0.0,94,0.00,CLR,FEW,0.00,0.0,WeatherDisplay:10.37,2013-12-20 12:25:00,
2013-12-20 07:30:00,24.1,22.6,30.03,NW,307,0.0,0.0,94,0.00,CLR,FEW,0.00,0.0,WeatherDisplay:10.37,2013-12-20 12:30:00,
2013-12-20 07:35:00,24.2,22.7,30.03,NW,307,0.0,0.0,94,0.00,CLR,FEW,0.00,0.0,WeatherDisplay:10.37,2013-12-20 12:35:00,
2013-12-20 07:40:00,24.2,22.7,30.02,NW,307,0.0,0.0,94,0.00,CLR,FEW,0.00,0.0,WeatherDisplay:10.37,2013-12-20 12:40:00,
2013-12-20 07:45:00,24.2,22.7,30.02,NW,307,0.0,0.0,94,0.00,CLR,FEW,0.00,0.0,WeatherDisplay:10.37,2013-12-20 12:45:00,
2013-12-20 07:50:00,24.3,22.8,30.02,NW,307,0.0,0.0,94,0.00,CLR,FEW,0.00,0.0,WeatherDisplay:10.37,2013-12-20 12:50:00,
2013-12-20 07:55:00,24.3,22.8,30.02,NW,307,0.0,0.0,94,0.00,CLR,FEW,0.00,0.0,WeatherDisplay:10.37,2013-12-20 12:55:00,
2013-12-20 08:00:00,24.4,22.9,30.02,NW,307,0.0,0.0,94,0.00,CLR,FEW,0.00,0.0,WeatherDisplay:10.37,2013-12-20 13:00:00,
2013-12-20 08:05:00,24.4,22.9,30.02,NW,307,0.0,0.0,94,0.00,CLR,FEW,0.00,0.0,WeatherDisplay:10.37,2013-12-20 13:05:00,
2013-12-20 08:10:00,24.5,23.0,30.02,NW,307,0.0,0.0,94,0.00,CLR,FEW,0.00,0.0,WeatherDisplay:10.37,2013-12-20 13:10:00,
2013-12-20 08:15:00,24.6,23.1,30.02,NW,307,0.0,0.0,94,0.00,CLR,FEW,0.00,0.0,WeatherDisplay:10.37,2013-12-20 13:15:00,
2013-12-20 08:20:00,24.6,23.1,30.02,NW,307,0.0,0.0,94,0.00,CLR,FEW,0.00,0.0,WeatherDisplay:10.37,2013-12-20 13:20:00,
2013-12-20 08:25:00,24.7,23.2,30.02,NW,307,0.0,0.0,94,0.00,CLR,FEW,0.00,0.0,WeatherDisplay:10.37,2013-12-20 13:25:00,
2013-12-20 08:30:00,24.8,23.3,30.02,NW,307,0.0,0.0,94,0.00,CLR,FEW,0.00,0.0,WeatherDisplay:10.37,2013-12-20 13:30:00,
2013-12-20 08:35:00,24.8,23.3,30.02,NW,307,0.0,0.0,94,0.00,CLR,FEW,0.00,0.0,WeatherDisplay:10.37,2013-12-20 13:35:00,
2013-12-20 08:40:00,24.9,23.4,30.02,NW,307,0.0,0.0,94,0.00,CLR,FEW,0.00,0.0,WeatherDisplay:10.37,2013-12-20 13:40:00,
2013-12-20 08:45:00,24.9,23.4,30.02,NW,307,0.0,0.0,94,0.00,CLR,FEW,0.00,0.0,WeatherDisplay:10.37,2013-12-20 13:45:00,
2013-12-20 08:50:00,25.0,23.5,30.02,NW,307,0.0,0.0,94,0.00,CLR,FEW,0.00,0.0,WeatherDisplay:10.37,2013-12-20 13:50:00,
2013-12-20 08:55:00,25.1,23.6,30.01,NW,307,0.0,0.0,94,0.00,CLR,FEW,0.00,0.0,WeatherDisplay:10.37,2013-12-20 13:55:00,
2013-12-20 09:00:00,25.2,23.7,30.01,NW,307,0.0,0.0,94,0.00,OVC,FEW,0.00,0.0,WeatherDisplay:10.37,2013-12-20 14:00:00,
2013-12-20 09:05:00,25.2,23.7,30.01,NW,307,0.0,0.0,94,0.00,OVC,FEW,0.00,0.0,WeatherDisplay:10.37,2013-12-20 14:05:00,
2013-12-20 09:10:00,25.4,23.9,30.01,NW,307,0.0,0.0,94,0.00,OVC,FEW,0.00,0.0,WeatherDisplay:10.37,2013-12-20 14:10:00,
2013-12-20 09:15:00,25.4,23.9,30.01,NW,307,0.0,0.0,94,0.00,OVC,FEW,0.00,0.0,WeatherDisplay:10.37,2013-12-20 14:15:00,
2013-12-20 09:20:00,25.5,24.0,30.01,NW,307,0.0,0.0,94,0.00,OVC,FEW,0.00,0.0,WeatherDisplay:10.37,2013-12-20 14:20:00,
2013-12-20 09:25:00,25.7,24.5,30.00,NW,307,0.0,0.0,95,0.00,OVC,FEW,0.00,0.0,WeatherDisplay:10.37,2013-12-20 14:25:00,
2013-12-20 09:30:00,25.7,24.5,30.00,NW,307,0.0,0.0,95,0.00,OVC,FEW,0.00,0.0,WeatherDisplay:10.37,2013-12-20 14:30:00,
2013-12-20 09:35:00,25.9,24.7,30.00,NW,307,0.0,0.0,95,0.00,OVC,FEW,0.00,0.0,WeatherDisplay:10.37,2013-12-20 14:35:00,
2013-12-20 09:40:00,26.0,24.8,30.01,NW,307,0.7,1.2,95,0.00,OVC,FEW,0.00,0.0,WeatherDisplay:10.37,2013-12-20 14:40:00,
2013-12-20 09:45:00,26.2,25.0,30.01,NW,307,1.9,3.5,95,0.00,OVC,FEW,0.00,0.0,WeatherDisplay:10.37,2013-12-20 14:45:00,
2013-12-20 09:50:00,26.2,24.7,30.01,NW,307,0.1,1.2,94,0.00,OVC,FEW,0.00,0.0,WeatherDisplay:10.37,2013-12-20 14:50:00,
2013-12-20 09:55:00,26.2,25.0,30.00,NW,307,0.7,2.3,95,0.00,OVC,FEW,0.00,0.0,WeatherDisplay:10.37,2013-12-20 14:55:00,
2013-12-20 10:00:00,26.2,25.0,30.00,NW,307,0.3,1.2,95,0.00,OVC,FEW,0.00,0.0,WeatherDisplay:10.37,2013-12-20 15:00:00,
2013-12-20 10:05:00,26.3,25.1,30.00,NW,307,0.0,0.0,95,0.00,OVC,FEW,0.00,0.0,WeatherDisplay:10.37,2013-12-20 15:05:00,
2013-12-20 10:10:00,26.4,24.9,29.99,NW,307,0.0,0.0,94,0.00,OVC,FEW,0.00,0.0,WeatherDisplay:10.37,2013-12-20 15:10:00,
2013-12-20 10:15:00,26.6,25.1,29.99,NW,307,0.9,2.3,94,0.00,OVC,FEW,0.00,0.0,WeatherDisplay:10.37,2013-12-20 15:15:00,
2013-12-20 10:20:00,26.7,25.5,29.99,NW,307,0.0,0.0,95,0.00,OVC,FEW,0.00,0.0,WeatherDisplay:10.37,2013-12-20 15:20:00,
2013-12-20 10:25:00,26.9,25.7,29.98,NW,307,0.3,1.2,95,0.00,OVC,FEW,0.00,0.0,WeatherDisplay:10.37,2013-12-20 15:25:00,
2013-12-20 10:30:00,27.0,25.5,29.98,NW,307,0.4,1.2,94,0.00,OVC,FEW,0.00,0.0,WeatherDisplay:10.37,2013-12-20 15:30:00,
2013-12-20 10:35:00,27.1,25.6,29.98,NW,307,0.0,0.0,94,0.00,OVC,FEW,0.00,0.0,WeatherDisplay:10.37,2013-12-20 15:35:00,
2013-12-20 10:40:00,27.2,25.7,29.97,NW,307,0.0,0.0,94,0.00,OVC,FEW,0.00,0.0,WeatherDisplay:10.37,2013-12-20 15:40:00,
2013-12-20 10:45:00,27.4,25.9,29.97,NW,307,0.0,0.0,94,0.00,OVC,FEW,0.00,0.0,WeatherDisplay:10.37,2013-12-20 15:45:00,
2013-12-20 10:50:00,27.6,26.1,29.97,NW,307,0.1,0.0,94,0.00,OVC,FEW,0.00,0.0,WeatherDisplay:10.37,2013-12-20 15:50:00,
2013-12-20 10:55:00,27.8,26.3,29.96,NW,307,0.4,1.2,94,0.00,OVC,FEW,0.00,0.0,WeatherDisplay:10.37,2013-12-20 15:55:00,
2013-12-20 11:00:00,27.9,26.4,29.96,NW,307,0.0,0.0,94,0.00,OVC,FEW,0.00,0.0,WeatherDisplay:10.37,2013-12-20 16:00:00,
2013-12-20 11:05:00,28.1,26.6,29.96,NW,307,0.0,0.0,94,0.00,OVC,FEW,0.00,0.0,WeatherDisplay:10.37,2013-12-20 16:05:00,
2013-12-20 11:10:00,28.4,26.9,29.94,NW,307,0.0,0.0,94,0.00,OVC,FEW,0.00,0.0,WeatherDisplay:10.37,2013-12-20 16:10:00,
2013-12-20 11:15:00,28.7,27.2,29.94,NW,307,0.0,0.0,94,0.00,OVC,FEW,0.00,0.0,WeatherDisplay:10.37,2013-12-20 16:15:00,
2013-12-20 11:20:00,29.0,27.2,29.94,NW,307,0.0,0.0,93,0.00,OVC,FEW,0.00,0.0,WeatherDisplay:10.37,2013-12-20 16:20:00,
2013-12-20 11:25:00,29.3,27.5,29.93,NW,307,0.0,0.0,93,0.00,OVC,FEW,0.00,0.0,WeatherDisplay:10.37,2013-12-20 16:25:00,
2013-12-20 11:30:00,29.6,27.8,29.93,NW,307,0.0,0.0,93,0.00,OVC,FEW,0.00,0.0,WeatherDisplay:10.37,2013-12-20 16:30:00,
2013-12-20 11:35:00,29.8,27.8,29.93,NW,307,0.0,0.0,92,0.00,OVC,FEW,0.00,0.0,WeatherDisplay:10.37,2013-12-20 16:35:00,
2013-12-20 11:40:00,30.1,28.1,29.91,NW,307,0.0,0.0,92,0.00,OVC,FEW,0.00,0.0,WeatherDisplay:10.37,2013-12-20 16:40:00,
2013-12-20 11:45:00,30.5,28.5,29.91,NW,307,0.0,0.0,92,0.00,OVC,FEW,0.00,0.0,WeatherDisplay:10.37,2013-12-20 16:45:00,
2013-12-20 11:50:00,30.7,28.4,29.91,NW,307,0.0,0.0,91,0.00,OVC,FEW,0.00,0.0,WeatherDisplay:10.37,2013-12-20 16:50:00,
2013-12-20 11:55:00,30.9,28.3,29.90,NW,307,0.0,0.0,90,0.00,OVC,FEW,0.00,0.0,WeatherDisplay:10.37,2013-12-20 16:55:00,
2013-12-20 12:00:00,31.0,28.4,29.90,NW,307,0.0,0.0,90,0.00,OVC,FEW,0.00,0.0,WeatherDisplay:10.37,2013-12-20 17:00:00,
2013-12-20 12:05:00,31.2,28.3,29.90,NW,307,0.0,0.0,89,0.00,OVC,FEW,0.00,0.0,WeatherDisplay:10.37,2013-12-20 17:05:00,
2013-12-20 12:10:00,31.4,28.5,29.89,NW,307,0.0,0.0,89,0.00,OVC,FEW,0.00,0.0,WeatherDisplay:10.37,2013-12-20 17:10:00,
2013-12-20 12:15:00,31.5,28.4,29.89,NW,307,0.0,0.0,88,0.00,OVC,FEW,0.00,0.0,WeatherDisplay:10.37,2013-12-20 17:15:00,
2013-12-20 12:20:00,31.7,28.6,29.89,NW,307,0.0,0.0,88,0.00,OVC,FEW,0.00,0.0,WeatherDisplay:10.37,2013-12-20 17:20:00,
2013-12-20 12:25:00,31.9,28.8,29.88,NW,307,0.0,0.0,88,0.00,OVC,FEW,0.00,0.0,WeatherDisplay:10.37,2013-12-20 17:25:00,
2013-12-20 12:30:00,32.1,28.9,29.88,NW,307,0.0,0.0,88,0.00,OVC,FEW,0.00,0.0,WeatherDisplay:10.37,2013-12-20 17:30:00,
2013-12-20 12:35:00,32.3,28.9,29.88,NW,307,0.0,0.0,87,0.00,OVC,FEW,0.00,0.0,WeatherDisplay:10.37,2013-12-20 17:35:00,
2013-12-20 12:40:00,32.4,29.0,29.86,NW,307,0.0,0.0,87,0.00,OVC,FEW,0.00,0.0,WeatherDisplay:10.37,2013-12-20 17:40:00,
2013-12-20 12:45:00,32.6,28.9,29.86,NW,307,0.0,0.0,86,0.00,OVC,FEW,0.00,0.0,WeatherDisplay:10.37,2013-12-20 17:45:00,
2013-12-20 12:50:00,32.6,28.6,29.86,NW,307,0.0,0.0,85,0.00,OVC,FEW,0.00,0.0,WeatherDisplay:10.37,2013-12-20 17:50:00,
2013-12-20 12:55:00,32.8,28.8,29.86,NW,307,0.0,0.0,85,0.00,OVC,FEW,0.00,0.0,WeatherDisplay:10.37,2013-12-20 17:55:00,
2013-12-20 13:00:00,32.9,28.9,29.86,NW,307,0.0,0.0,85,0.00,OVC,FEW,0.00,0.0,WeatherDisplay:10.37,2013-12-20 18:00:00,
2013-12-20 13:05:00,33.1,29.1,29.86,NW,307,0.0,0.0,85,0.00,OVC,FEW,0.00,0.0,WeatherDisplay:10.37,2013-12-20 18:05:00,
2013-12-20 13:10:00,33.3,29.3,29.85,NW,307,0.0,0.0,85,0.00,OVC,FEW,0.00,0.0,WeatherDisplay:10.37,2013-12-20 18:10:00,
2013-12-20 13:15:00,33.7,30.0,29.85,NW,307,0.0,0.0,86,0.00,OVC,FEW,0.00,0.0,WeatherDisplay:10.37,2013-12-20 18:15:00,
2013-12-20 13:20:00,34.0,30.3,29.85,NW,307,0.0,0.0,86,0.00,OVC,FEW,0.00,0.0,WeatherDisplay:10.37,2013-12-20 18:20:00,
2013-12-20 13:25:00,34.3,30.3,29.85,NW,307,0.0,0.0,85,0.00,OVC,FEW,0.00,0.0,WeatherDisplay:10.37,2013-12-20 18:25:00,
2013-12-20 13:30:00,34.4,30.4,29.85,NW,307,0.0,0.0,85,0.00,OVC,FEW,0.00,0.0,WeatherDisplay:10.37,2013-12-20 18:30:00,
2013-12-20 13:35:00,34.6,30.3,29.85,NW,307,0.0,0.0,84,0.00,OVC,FEW,0.00,0.0,WeatherDisplay:10.37,2013-12-20 18:35:00,
2013-12-20 13:40:00,34.8,30.5,29.84,NW,307,0.0,0.0,84,0.00,OVC,FEW,0.00,0.0,WeatherDisplay:10.37,2013-12-20 18:40:00,
2013-12-20 13:45:00,35.0,30.7,29.84,NW,307,0.0,0.0,84,0.00,OVC,FEW,0.00,0.0,WeatherDisplay:10.37,2013-12-20 18:45:00,
2013-12-20 13:51:00,35.0,30.4,29.84,NW,307,0.0,0.0,83,0.00,OVC,FEW,0.00,0.0,WeatherDisplay:10.37,2013-12-20 18:51:00,
2013-12-20 13:56:00,35.1,30.8,29.83,NW,307,0.0,0.0,84,0.00,OVC,FEW,0.00,0.0,WeatherDisplay:10.37,2013-12-20 18:56:00,
2013-12-20 14:01:00,35.3,30.9,29.83,NW,307,0.0,0.0,84,0.00,OVC,FEW,0.00,0.0,WeatherDisplay:10.37,2013-12-20 19:01:00,
2013-12-20 14:06:00,35.3,30.7,29.83,NW,307,0.0,0.0,83,0.00,OVC,FEW,0.00,0.0,WeatherDisplay:10.37,2013-12-20 19:06:00,
2013-12-20 14:11:00,35.3,30.7,29.83,NW,307,0.0,0.0,83,0.00,OVC,FEW,0.00,0.0,WeatherDisplay:10.37,2013-12-20 19:11:00,
2013-12-20 14:16:00,35.5,31.1,29.83,NW,307,0.0,0.0,84,0.00,OVC,FEW,0.00,0.0,WeatherDisplay:10.37,2013-12-20 19:16:00,
2013-12-20 14:21:00,35.5,31.1,29.83,NW,307,0.4,1.2,84,0.00,OVC,FEW,0.00,0.0,WeatherDisplay:10.37,2013-12-20 19:21:00,
2013-12-20 14:26:00,35.4,31.0,29.83,NW,307,0.0,2.3,84,0.00,OVC,FEW,0.00,0.0,WeatherDisplay:10.37,2013-12-20 19:26:00,
2013-12-20 14:31:00,35.3,30.9,29.83,NW,307,0.0,0.0,84,0.00,OVC,FEW,0.00,0.0,WeatherDisplay:10.37,2013-12-20 19:31:00,
2013-12-20 14:33:00,35.3,30.9,29.83,NW,307,0.0,0.0,84,0.00,OVC,FEW,0.00,0.0,WeatherDisplay:10.37,2013-12-20 19:33:00,
2013-12-20 14:38:00,35.4,31.3,29.83,NW,307,0.0,0.0,85,0.00,OVC,FEW,0.00,0.0,WeatherDisplay:10.37,2013-12-20 19:38:00,
2013-12-20 14:43:00,35.4,31.3,29.84,NW,307,0.0,0.0,85,0.00,OVC,FEW,0.00,0.0,WeatherDisplay:10.37,2013-12-20 19:43:00,
2013-12-20 14:48:00,35.4,31.6,29.84,NW,307,0.0,0.0,86,0.00,OVC,FEW,0.00,0.0,WeatherDisplay:10.37,2013-12-20 19:48:00,
2013-12-20 14:53:00,35.5,31.7,29.84,NW,307,0.0,0.0,86,0.00,OVC,FEW,0.00,0.0,WeatherDisplay:10.37,2013-12-20 19:53:00,
2013-12-20 14:58:00,35.5,31.7,29.84,NW,307,0.0,0.0,86,0.00,OVC,FEW,0.00,0.0,WeatherDisplay:10.37,2013-12-20 19:58:00,
2013-12-20 15:03:00,35.4,31.9,29.84,NW,307,0.0,0.0,87,0.00,CLR,FEW,0.00,0.0,WeatherDisplay:10.37,2013-12-20 20:03:00,
2013-12-20 15:08:00,35.4,31.9,29.84,NW,307,0.0,0.0,87,0.00,CLR,FEW,0.00,0.0,WeatherDisplay:10.37,2013-12-20 20:08:00,
2013-12-20 15:13:00,35.4,31.9,29.84,NW,307,0.0,0.0,87,0.00,CLR,FEW,0.00,0.0,WeatherDisplay:10.37,2013-12-20 20:13:00,
2013-12-20 15:18:00,35.2,31.7,29.84,NW,307,0.0,0.0,87,0.00,CLR,FEW,0.00,0.0,WeatherDisplay:10.37,2013-12-20 20:18:00,
2013-12-20 15:23:00,35.1,31.6,29.84,NW,307,0.0,0.0,87,0.00,CLR,FEW,0.00,0.0,WeatherDisplay:10.37,2013-12-20 20:23:00,
2013-12-20 15:28:00,35.0,31.5,29.84,NW,307,0.0,0.0,87,0.00,CLR,FEW,0.00,0.0,WeatherDisplay:10.37,2013-12-20 20:28:00,
2013-12-20 15:33:00,34.9,31.7,29.84,NW,307,0.0,0.0,88,0.00,CLR,FEW,0.00,0.0,WeatherDisplay:10.37,2013-12-20 20:33:00,
2013-12-20 15:38:00,34.9,31.7,29.84,NW,307,0.0,0.0,88,0.00,CLR,FEW,0.00,0.0,WeatherDisplay:10.37,2013-12-20 20:38:00,
2013-12-20 15:43:00,34.9,31.7,29.83,NW,307,0.0,0.0,88,0.00,CLR,FEW,0.00,0.0,WeatherDisplay:10.37,2013-12-20 20:43:00,
2013-12-20 15:48:00,34.8,31.6,29.83,NW,307,0.0,0.0,88,0.00,CLR,FEW,0.00,0.0,WeatherDisplay:10.37,2013-12-20 20:48:00,
2013-12-20 15:53:00,34.8,31.6,29.83,NW,307,0.0,0.0,88,0.00,CLR,FEW,0.00,0.0,WeatherDisplay:10.37,2013-12-20 20:53:00,
2013-12-20 15:58:00,34.7,31.5,29.83,NW,307,0.0,0.0,88,0.00,CLR,FEW,0.00,0.0,WeatherDisplay:10.37,2013-12-20 20:58:00,
2013-12-20 16:03:00,34.5,31.3,29.83,NW,307,0.0,0.0,88,0.00,CLR,FEW,0.00,0.0,WeatherDisplay:10.37,2013-12-20 21:03:00,
2013-12-20 16:08:00,34.4,31.5,29.83,NW,307,0.0,0.0,89,0.00,CLR,FEW,0.00,0.0,WeatherDisplay:10.37,2013-12-20 21:08:00,
2013-12-20 16:13:00,34.4,31.5,29.83,NW,307,0.0,0.0,89,0.00,CLR,FEW,0.00,0.0,WeatherDisplay:10.37,2013-12-20 21:13:00,
2013-12-20 16:18:00,34.4,31.5,29.83,NW,307,0.0,0.0,89,0.00,CLR,FEW,0.00,0.0,WeatherDisplay:10.37,2013-12-20 21:18:00,
2013-12-20 16:23:00,34.2,31.3,29.83,NW,307,0.0,0.0,89,0.00,CLR,FEW,0.00,0.0,WeatherDisplay:10.37,2013-12-20 21:23:00,
2013-12-20 16:28:00,34.1,31.2,29.82,NW,307,0.0,0.0,89,0.00,CLR,FEW,0.00,0.0,WeatherDisplay:10.37,2013-12-20 21:28:00,
2013-12-20 16:33:00,33.8,30.9,29.82,NW,307,0.0,0.0,89,0.00,CLR,FEW,0.00,0.0,WeatherDisplay:10.37,2013-12-20 21:33:00,
2013-12-20 16:38:00,33.6,31.0,29.82,NW,307,0.0,0.0,90,0.00,CLR,FEW,0.00,0.0,WeatherDisplay:10.37,2013-12-20 21:38:00,
2013-12-20 16:43:00,33.5,30.9,29.82,NW,307,0.0,0.0,90,0.00,CLR,FEW,0.00,0.0,WeatherDisplay:10.37,2013-12-20 21:43:00,
2013-12-20 16:48:00,33.4,30.8,29.82,NW,307,0.0,0.0,90,0.00,CLR,FEW,0.00,0.0,WeatherDisplay:10.37,2013-12-20 21:48:00,
2013-12-20 16:53:00,33.2,30.9,29.82,NW,307,0.0,0.0,91,0.00,CLR,FEW,0.00,0.0,WeatherDisplay:10.37,2013-12-20 21:53:00,
2013-12-20 16:58:00,33.1,30.8,29.83,NW,307,0.0,0.0,91,0.00,CLR,FEW,0.00,0.0,WeatherDisplay:10.37,2013-12-20 21:58:00,
2013-12-20 17:03:00,33.0,30.7,29.83,NW,307,0.0,0.0,91,0.00,CLR,FEW,0.00,0.0,WeatherDisplay:10.37,2013-12-20 22:03:00,
2013-12-20 17:08:00,32.9,30.6,29.83,NW,307,0.0,0.0,91,0.00,CLR,FEW,0.00,0.0,WeatherDisplay:10.37,2013-12-20 22:08:00,
2013-12-20 17:13:00,32.8,30.5,29.83,NW,307,0.0,0.0,91,0.00,CLR,FEW,0.00,0.0,WeatherDisplay:10.37,2013-12-20 22:13:00,
2013-12-20 17:18:00,32.6,30.3,29.83,NW,307,0.0,0.0,91,0.00,CLR,FEW,0.00,0.0,WeatherDisplay:10.37,2013-12-20 22:18:00,
2013-12-20 17:23:00,32.5,30.4,29.83,NW,307,0.0,0.0,92,0.00,CLR,FEW,0.00,0.0,WeatherDisplay:10.37,2013-12-20 22:23:00,
2013-12-20 17:28:00,32.5,30.4,29.83,NW,307,0.0,0.0,92,0.00,CLR,FEW,0.00,0.0,WeatherDisplay:10.37,2013-12-20 22:28:00,
2013-12-20 17:33:00,32.4,30.3,29.83,NW,307,0.0,0.0,92,0.00,CLR,FEW,0.00,0.0,WeatherDisplay:10.37,2013-12-20 22:33:00,
2013-12-20 17:38:00,32.2,30.1,29.83,NW,307,0.0,0.0,92,0.00,CLR,FEW,0.00,0.0,WeatherDisplay:10.37,2013-12-20 22:38:00,
2013-12-20 17:43:00,32.1,30.0,29.83,NW,307,0.0,0.0,92,0.00,CLR,FEW,0.00,0.0,WeatherDisplay:10.37,2013-12-20 22:43:00,
2013-12-20 17:48:00,32.0,29.9,29.83,NW,307,0.0,0.0,92,0.00,CLR,FEW,0.00,0.0,WeatherDisplay:10.37,2013-12-20 22:48:00,
2013-12-20 17:53:00,31.9,29.8,29.83,NW,307,0.0,0.0,92,0.00,CLR,FEW,0.00,0.0,WeatherDisplay:10.37,2013-12-20 22:53:00,
2013-12-20 17:58:00,31.8,29.7,29.85,NW,307,0.0,0.0,92,0.00,CLR,FEW,0.00,0.0,WeatherDisplay:10.37,2013-12-20 22:58:00,
2013-12-20 18:03:00,31.7,29.6,29.85,NW,307,0.0,0.0,92,0.00,CLR,FEW,0.00,0.0,WeatherDisplay:10.37,2013-12-20 23:03:00,
2013-12-20 18:08:00,31.7,29.6,29.85,NW,307,0.0,0.0,92,0.00,CLR,FEW,0.00,0.0,WeatherDisplay:10.37,2013-12-20 23:08:00,
2013-12-20 18:13:00,31.6,29.5,29.85,NW,307,0.0,0.0,92,0.00,CLR,FEW,0.00,0.0,WeatherDisplay:10.37,2013-12-20 23:13:00,
2013-12-20 18:18:00,31.5,29.4,29.85,NW,307,0.0,0.0,92,0.00,CLR,FEW,0.00,0.0,WeatherDisplay:10.37,2013-12-20 23:18:00,
2013-12-20 18:23:00,31.5,29.7,29.85,NW,307,0.0,0.0,93,0.00,CLR,FEW,0.00,0.0,WeatherDisplay:10.37,2013-12-20 23:23:00,
2013-12-20 18:28:00,31.5,29.7,29.85,NW,307,0.0,0.0,93,0.00,CLR,FEW,0.00,0.0,WeatherDisplay:10.37,2013-12-20 23:28:00,
2013-12-20 18:33:00,31.5,29.7,29.85,NW,307,0.0,0.0,93,0.00,CLR,FEW,0.00,0.0,WeatherDisplay:10.37,2013-12-20 23:33:00,
2013-12-20 18:38:00,31.4,29.6,29.85,NW,307,0.0,0.0,93,0.00,CLR,FEW,0.00,0.0,WeatherDisplay:10.37,2013-12-20 23:38:00,
2013-12-20 18:43:00,31.4,29.6,29.85,NW,307,0.0,0.0,93,0.00,CLR,FEW,0.00,0.0,WeatherDisplay:10.37,2013-12-20 23:43:00,
2013-12-20 18:48:00,31.4,29.9,29.85,NW,307,0.0,0.0,94,0.00,CLR,FEW,0.00,0.0,WeatherDisplay:10.37,2013-12-20 23:48:00,
2013-12-20 18:53:00,31.4,29.9,29.85,NW,307,0.0,0.0,94,0.00,CLR,FEW,0.00,0.0,WeatherDisplay:10.37,2013-12-20 23:53:00,
2013-12-20 18:58:00,31.5,30.0,29.85,NW,307,0.0,0.0,94,0.00,CLR,FEW,0.00,0.0,WeatherDisplay:10.37,2013-12-20 23:58:00,
2013-12-20 19:03:00,31.5,30.0,29.85,NW,307,0.0,0.0,94,0.00,CLR,FEW,0.00,0.0,WeatherDisplay:10.37,2013-12-21 00:03:00,
2013-12-20 19:08:00,31.5,30.0,29.85,NW,307,0.0,0.0,94,0.00,CLR,FEW,0.00,0.0,WeatherDisplay:10.37,2013-12-21 00:08:00,
2013-12-20 19:13:00,31.6,30.1,29.85,NW,307,0.0,0.0,94,0.00,CLR,FEW,0.00,0.0,WeatherDisplay:10.37,2013-12-21 00:13:00,
2013-12-20 19:18:00,31.7,30.2,29.85,NW,307,0.0,0.0,94,0.00,CLR,FEW,0.00,0.0,WeatherDisplay:10.37,2013-12-21 00:18:00,
2013-12-20 19:23:00,31.7,30.2,29.85,NW,307,0.0,0.0,94,0.00,CLR,FEW,0.00,0.0,WeatherDisplay:10.37,2013-12-21 00:23:00,
2013-12-20 19:28:00,31.7,30.2,29.85,NW,307,0.0,0.0,94,0.00,CLR,FEW,0.00,0.0,WeatherDisplay:10.37,2013-12-21 00:28:00,
2013-12-20 19:33:00,31.7,30.2,29.85,NW,307,0.0,0.0,94,0.00,CLR,FEW,0.00,0.0,WeatherDisplay:10.37,2013-12-21 00:33:00,
2013-12-20 19:38:00,31.8,30.5,29.85,NW,307,0.0,0.0,95,0.00,CLR,FEW,0.00,0.0,WeatherDisplay:10.37,2013-12-21 00:38:00,
2013-12-20 19:43:00,31.9,30.6,29.86,NW,307,0.0,0.0,95,0.00,CLR,FEW,0.00,0.0,WeatherDisplay:10.37,2013-12-21 00:43:00,
2013-12-20 19:48:00,31.9,30.6,29.86,NW,307,0.0,0.0,95,0.00,CLR,FEW,0.00,0.0,WeatherDisplay:10.37,2013-12-21 00:48:00,
2013-12-20 19:53:00,31.9,30.4,29.86,NW,307,0.0,0.0,94,0.00,CLR,FEW,0.00,0.0,WeatherDisplay:10.37,2013-12-21 00:53:00,
2013-12-20 19:58:00,31.9,30.6,29.86,NW,307,0.0,0.0,95,0.00,CLR,FEW,0.00,0.0,WeatherDisplay:10.37,2013-12-21 00:58:00,
2013-12-20 20:03:00,32.0,30.7,29.86,NW,307,0.0,0.0,95,0.00,CLR,FEW,0.00,0.0,WeatherDisplay:10.37,2013-12-21 01:03:00,
2013-12-20 20:08:00,32.0,30.7,29.86,NW,307,0.0,0.0,95,0.00,CLR,FEW,0.00,0.0,WeatherDisplay:10.37,2013-12-21 01:08:00,
2013-12-20 20:13:00,32.0,30.7,29.86,NW,307,0.0,0.0,95,0.00,CLR,FEW,0.00,0.0,WeatherDisplay:10.37,2013-12-21 01:13:00,
2013-12-20 20:18:00,32.0,30.7,29.86,NW,307,0.0,0.0,95,0.00,CLR,FEW,0.00,0.0,WeatherDisplay:10.37,2013-12-21 01:18:00,
2013-12-20 20:23:00,32.0,30.7,29.86,NW,307,0.0,0.0,95,0.00,CLR,FEW,0.00,0.0,WeatherDisplay:10.37,2013-12-21 01:23:00,
2013-12-20 20:28:00,32.1,30.8,29.86,NW,307,0.0,0.0,95,0.00,CLR,FEW,0.00,0.0,WeatherDisplay:10.37,2013-12-21 01:28:00,
2013-12-20 20:33:00,32.1,30.8,29.86,NW,307,0.2,1.0,95,0.00,CLR,FEW,0.00,0.0,WeatherDisplay:10.37,2013-12-21 01:33:00,
2013-12-20 20:38:00,32.4,31.1,29.86,NW,307,1.5,3.5,95,0.00,CLR,FEW,0.00,0.0,WeatherDisplay:10.37,2013-12-21 01:38:00,
2013-12-20 20:43:00,32.5,31.2,29.87,NW,307,0.0,0.0,95,0.00,CLR,FEW,0.00,0.0,WeatherDisplay:10.37,2013-12-21 01:43:00,
2013-12-20 20:48:00,32.5,31.2,29.87,NW,307,1.2,2.3,95,0.00,CLR,FEW,0.00,0.0,WeatherDisplay:10.37,2013-12-21 01:48:00,
2013-12-20 20:53:00,32.6,31.3,29.87,NW,307,0.0,1.2,95,0.00,CLR,FEW,0.00,0.0,WeatherDisplay:10.37,2013-12-21 01:53:00,
2013-12-20 20:58:00,32.6,31.3,29.86,NW,307,0.0,0.0,95,0.00,CLR,FEW,0.00,0.0,WeatherDisplay:10.37,2013-12-21 01:58:00,
2013-12-20 21:03:00,32.6,31.3,29.86,NW,307,0.0,0.0,95,0.00,CLR,FEW,0.00,0.0,WeatherDisplay:10.37,2013-12-21 02:03:00,
2013-12-20 21:09:00,32.6,31.3,29.86,NW,307,0.0,0.0,95,0.00,CLR,FEW,0.00,0.0,WeatherDisplay:10.37,2013-12-21 02:09:00,
2013-12-20 21:14:00,32.6,31.3,29.86,NW,307,0.0,0.0,95,0.00,CLR,FEW,0.00,0.0,WeatherDisplay:10.37,2013-12-21 02:14:00,
2013-12-20 21:19:00,32.6,31.3,29.86,NW,307,0.0,0.0,95,0.00,CLR,FEW,0.00,0.0,WeatherDisplay:10.37,2013-12-21 02:19:00,
2013-12-20 21:24:00,32.7,31.4,29.86,NW,307,0.0,0.0,95,0.00,CLR,FEW,0.00,0.0,WeatherDisplay:10.37,2013-12-21 02:24:00,
2013-12-20 21:29:00,32.7,31.4,29.85,NW,307,0.0,0.0,95,0.00,CLR,FEW,0.00,0.0,WeatherDisplay:10.37,2013-12-21 02:29:00,
2013-12-20 21:34:00,32.7,31.4,29.85,NW,307,0.0,0.0,95,0.00,CLR,FEW,0.00,0.0,WeatherDisplay:10.37,2013-12-21 02:34:00,
2013-12-20 21:39:00,32.7,31.4,29.85,NW,307,0.0,0.0,95,0.00,CLR,FEW,0.00,0.0,WeatherDisplay:10.37,2013-12-21 02:39:00,
2013-12-20 21:44:00,32.7,31.4,29.86,NW,307,0.0,0.0,95,0.00,CLR,FEW,0.00,0.0,WeatherDisplay:10.37,2013-12-21 02:44:00,
2013-12-20 21:49:00,32.7,31.4,29.86,NW,307,0.0,0.0,95,0.00,CLR,FEW,0.00,0.0,WeatherDisplay:10.37,2013-12-21 02:49:00,
2013-12-20 21:54:00,32.7,31.4,29.86,NW,307,0.0,0.0,95,0.00,CLR,FEW,0.00,0.0,WeatherDisplay:10.37,2013-12-21 02:54:00,
2013-12-20 21:59:00,32.7,31.4,29.85,NW,307,0.0,0.0,95,0.00,CLR,FEW,0.00,0.0,WeatherDisplay:10.37,2013-12-21 02:59:00,
2013-12-20 22:04:00,32.7,31.4,29.85,NW,307,0.0,0.0,95,0.00,CLR,FEW,0.00,0.0,WeatherDisplay:10.37,2013-12-21 03:04:00,
2013-12-20 22:09:00,32.7,31.4,29.85,NW,307,0.0,0.0,95,0.00,CLR,FEW,0.00,0.0,WeatherDisplay:10.37,2013-12-21 03:09:00,
2013-12-20 22:14:00,32.7,31.4,29.86,NW,307,0.0,0.0,95,0.00,CLR,FEW,0.00,0.0,WeatherDisplay:10.37,2013-12-21 03:14:00,
2013-12-20 22:19:00,32.7,31.4,29.86,NW,307,0.0,0.0,95,0.00,CLR,FEW,0.00,0.0,WeatherDisplay:10.37,2013-12-21 03:19:00,
2013-12-20 22:24:00,32.7,31.4,29.86,NW,307,0.0,0.0,95,0.00,CLR,FEW,0.00,0.0,WeatherDisplay:10.37,2013-12-21 03:24:00,
2013-12-20 22:29:00,32.6,31.3,29.86,NW,307,0.0,0.0,95,0.00,CLR,FEW,0.00,0.0,WeatherDisplay:10.37,2013-12-21 03:29:00,
2013-12-20 22:34:00,32.6,31.3,29.86,NW,307,0.0,0.0,95,0.00,CLR,FEW,0.00,0.0,WeatherDisplay:10.37,2013-12-21 03:34:00,
2013-12-20 22:39:00,32.6,31.3,29.86,NW,307,0.0,0.0,95,0.00,CLR,FEW,0.00,0.0,WeatherDisplay:10.37,2013-12-21 03:39:00,
2013-12-20 22:44:00,32.6,31.3,29.86,NW,307,0.0,0.0,95,0.00,CLR,FEW,0.00,0.0,WeatherDisplay:10.37,2013-12-21 03:44:00,
2013-12-20 22:49:00,32.6,31.3,29.86,NW,307,0.0,0.0,95,0.00,CLR,FEW,0.00,0.0,WeatherDisplay:10.37,2013-12-21 03:49:00,
2013-12-20 22:54:00,32.6,31.3,29.86,NW,307,0.0,0.0,95,0.00,CLR,FEW,0.00,0.0,WeatherDisplay:10.37,2013-12-21 03:54:00,
2013-12-20 22:59:00,32.6,31.3,29.86,NW,307,0.0,0.0,95,0.00,CLR,FEW,0.00,0.0,WeatherDisplay:10.37,2013-12-21 03:59:00,
2013-12-20 23:04:00,32.6,31.3,29.86,NW,307,0.0,0.0,95,0.00,CLR,FEW,0.00,0.0,WeatherDisplay:10.37,2013-12-21 04:04:00,
2013-12-20 23:09:00,32.6,31.3,29.86,NW,307,0.0,0.0,95,0.00,CLR,FEW,0.00,0.0,WeatherDisplay:10.37,2013-12-21 04:09:00,
2013-12-20 23:14:00,32.6,31.3,29.86,NW,307,0.0,0.0,95,0.00,CLR,FEW,0.00,0.0,WeatherDisplay:10.37,2013-12-21 04:14:00,
2013-12-20 23:19:00,32.6,31.6,29.86,NW,307,0.0,1.2,96,0.00,CLR,FEW,0.00,0.0,WeatherDisplay:10.37,2013-12-21 04:19:00,
2013-12-20 23:24:00,32.7,31.4,29.85,NW,307,1.3,2.0,95,0.00,CLR,FEW,0.00,0.0,WeatherDisplay:10.37,2013-12-21 04:24:00,
2013-12-20 23:29:00,32.9,31.6,29.85,NW,307,0.0,0.0,95,0.00,CLR,FEW,0.00,0.0,WeatherDisplay:10.37,2013-12-21 04:29:00,
2013-12-20 23:34:00,32.9,31.6,29.85,NW,307,0.0,0.0,95,0.00,CLR,FEW,0.00,0.0,WeatherDisplay:10.37,2013-12-21 04:34:00,
2013-12-20 23:39:00,32.9,31.6,29.85,NW,307,0.0,0.0,95,0.00,CLR,FEW,0.00,0.0,WeatherDisplay:10.37,2013-12-21 04:39:00,
2013-12-20 23:44:00,32.9,31.6,29.85,NW,307,0.0,0.0,95,0.00,CLR,FEW,0.00,0.0,WeatherDisplay:10.37,2013-12-21 04:44:00,
2013-12-20 23:49:00,32.9,31.6,29.85,NW,307,0.0,0.0,95,0.00,CLR,FEW,0.00,0.0,WeatherDisplay:10.37,2013-12-21 04:49:00,
2013-12-20 23:54:00,32.9,31.6,29.86,NW,307,0.0,0.0,95,0.00,CLR,FEW,0.00,0.0,WeatherDisplay:10.37,2013-12-21 04:54:00,
2013-12-20 23:59:00,32.9,31.9,29.86,NW,307,0.0,0.0,96,0.00,CLR,FEW,0.00,0.0,WeatherDisplay:10.37,2013-12-21 04:59:00,